Weather History for Midland, TX

Change the Weather History Date:

Wednesday, October 26, 2011

  Actual Average Record
Temperature  
Mean Temperature 71 °F 62 °F  
Max Temperature 83 °F 75 °F 90 °F (1950)
Min Temperature 58 °F 48 °F 33 °F (1932)
Degree Days  
Heating Degree Days 0 5  
Month to date heating degree days 16 69  
Since 1 July heating degree days 19 80  
Cooling Degree Days 6 1  
Month to date cooling degree days 145 89  
Year to date cooling degree days 3252 2268  
Growing Degree Days 21 (Base 50)    
Moisture  
Dew Point 47 °F    
Average Humidity 39    
Maximum Humidity 52    
Minimum Humidity 26    
Precipitation  
Precipitation T in 0.04 in 0.43 in (1984)
Month to date precipitation 1.33 1.54  
Year to date precipitation 3.53 13.12  
Snow  
Snow 0.00 in - - ()
Month to date snowfall 0.0  
Since 1 July snowfall 0.0  
Since 1 September snowfall 0.0  
Snow Depth 0.00 in    
Sea Level Pressure  
Sea Level Pressure 29.80 in    
Wind  
Wind Speed 12 mph (East)    
Max Wind Speed 32 mph    
Max Gust Speed 37 mph    
Visibility 10 miles    
Events Rain    
T = Trace of Precipitation, MM = Missing Value Source: NWS Daily Summary

Daily Weather History Graph

Daily Weather History Graph

Search for Another Location

Airport:

Trip Planner

Search our weather history database for the weather conditions in past years. The results will help you decide how hot, cold, wet, or windy it might be!

Date:

Astronomy

Oct. 26, 2011 Rise Set
Actual Time 8:00 AM CDT 7:04 PM CDT
Civil Twilight 7:35 AM CDT 7:29 PM CDT
Nautical Twilight 7:06 AM CDT 7:58 PM CDT
Astronomical Twilight 6:38 AM CDT 8:26 PM CDT
Moon 7:47 AM CDT 6:53 PM CDT
Length of Visible Light 11h 54m
Length of Day
11h 04m
Waning Crescent, 0% of the Moon is Illuminated
Oct 26
Waning Crescent
Oct 26
New
Nov 2
First Quarter
Nov 10
Full
Nov 18
Last Quarter

Hourly Weather History & Observations

Time (CDT) Temp. Dew Point Humidity Pressure Visibility Wind Dir Wind Speed Gust Speed Precip Events Conditions
12:53 AM 71.1 °F 50.0 °F 47% 29.82 in 10.0 mi South 10.4 mph - N/A   Mostly Cloudy
1:53 AM 71.1 °F 50.0 °F 47% 29.81 in 10.0 mi SSW 8.1 mph - N/A   Scattered Clouds
2:53 AM 71.1 °F 50.0 °F 47% 29.80 in 10.0 mi SSW 8.1 mph - N/A   Clear
3:53 AM 71.1 °F 48.9 °F 45% 29.79 in 10.0 mi South 6.9 mph - N/A   Mostly Cloudy
4:53 AM 71.1 °F 48.0 °F 44% 29.78 in 10.0 mi SSW 6.9 mph - N/A   Mostly Cloudy
5:53 AM 69.8 °F 48.2 °F 46% 29.92 in 10.0 mi SSW 6.9 mph - N/A   Scattered Clouds
6:53 AM 66.9 °F 48.9 °F 52% 29.81 in 10.0 mi SSW 5.8 mph - N/A   Scattered Clouds
7:53 AM 66.9 °F 48.9 °F 52% 29.81 in 10.0 mi SSW 4.6 mph - N/A   Mostly Cloudy
8:53 AM 66.9 °F 48.9 °F 52% 29.82 in 10.0 mi SW 6.9 mph - N/A   Partly Cloudy
9:53 AM 73.9 °F 48.9 °F 41% 29.83 in 10.0 mi WSW 8.1 mph - N/A   Scattered Clouds
10:53 AM 75.9 °F 48.9 °F 38% 29.85 in 10.0 mi North 6.9 mph - N/A   Clear
11:53 AM 75.0 °F 45.0 °F 34% 29.86 in 10.0 mi North 9.2 mph - N/A   Partly Cloudy
12:53 PM 75.9 °F 42.1 °F 30% 29.84 in 10.0 mi North 10.4 mph - N/A   Partly Cloudy
1:53 PM 75.9 °F 42.1 °F 30% 29.82 in 10.0 mi North 9.2 mph - N/A   Clear
2:53 PM 79.0 °F 43.0 °F 28% 29.78 in 10.0 mi NE 8.1 mph - N/A   Partly Cloudy
3:53 PM 82.0 °F 44.1 °F 26% 29.74 in 10.0 mi NNE 9.2 mph - N/A   Clear
4:53 PM 82.0 °F 46.0 °F 28% 29.71 in 10.0 mi ENE 12.7 mph - N/A   Clear
5:53 PM 79.0 °F 46.9 °F 32% 29.71 in 10.0 mi ENE 16.1 mph - N/A   Clear
6:53 PM 73.4 °F 46.4 °F 38% 29.84 in 10.0 mi ENE 18.4 mph - N/A   Clear
7:53 PM 70.0 °F 45.0 °F 41% 29.75 in 10.0 mi ENE 20.7 mph 26.5 mph N/A   Mostly Cloudy
8:53 PM 66.0 °F 45.0 °F 47% 29.76 in 10.0 mi NE 18.4 mph - 0.00 in Rain Light Rain
9:53 PM 63.0 °F 45.0 °F 52% 29.75 in 10.0 mi East 19.6 mph 24.2 mph 0.00 in   Partly Cloudy
10:53 PM 60.8 °F 42.8 °F 52% 29.88 in 10.0 mi East 18.4 mph 25.3 mph N/A   Clear
11:53 PM 60.1 °F 43.0 °F 53% 29.78 in 10.0 mi East 18.4 mph - N/A   Clear